Location: Hylvaty SDH
(49.9612°N, 16.4057°E)
Time: 20:30:01
(UTC+01:00)

ISS - Visible Passes

Search period start: 09 December 2019 00:00
Search period end: 19 December 2019 00:00
Orbit: 411 x 421 km, 51.6° (Epoch: 10 December)

Date Brightness Start Highest point End Pass type
(mag) Time Alt. Az. Time Alt. Az. Time Alt. Az.
09 Dec -1.7 17:38:58 10° W 17:41:53 27° SW 17:44:47 10° SSE visible
10 Dec -2.3 16:50:22 10° W 16:53:31 39° SSW 16:56:42 10° SE visible
11 Dec -0.6 17:39:37 10° WSW 17:41:18 13° SW 17:42:59 10° SSW visible
12 Dec -0.8 16:50:30 10° W 16:53:02 20° SW 16:55:32 10° S visible
